クリステンセン彗星

422P/Christensen (2022)

English version
Home page
Updated on September 18, 2021

---------------------------------------------------------------------

・ プロフィール

符号 422P/2021 L1
検出日 2021年6月5日
検出光度 18.6等
検出者 C. Jacques (Belo Horizonte, Brazil)

・ 写真集

・ 軌道要素

Epoch 2022 Jan. 21.0 TT = JDT 2459600.5                                         
T 2022 Jan. 13.82641 TT                                 Rudenko                 
q   3.1051885            (2000.0)            P               Q                  
n   0.06201822     Peri.  305.15378     +0.83658126     +0.39975263             
a   6.3210592      Node    36.04818     +0.05015259     +0.62502917             
e   0.5087550      Incl.   39.53736     -0.54554240     +0.67047473             
P  15.9                                                                         
From 170 observations 2006 Sept. 22-2021 June 15, mean residual 1".0.           

・ 光度変化

        m1 = 7.0 + 5 logΔ + 15.0 log r

---------------------------------------------------------------------

軌道要素はM.P.E.C. 2021-M34に掲載されたものです。
光度グラフはComet for Windowsで作成したものです。

---------------------------------------------------------------------

Copyright(C) Seiichi Yoshida (comet@aerith.net). All rights reserved.